• în Republica Moldova
  • Lista ţărilor
  • Pe 7 zile
  • Temperatura apei
  • Hartă satelitară
  • Meteo pe hartă
  • Widget-uri
  • user-avatar
    Intrare

    Meteo pe oră la Adelaide

    Astăzi, 25 Februarie, Sâmbătă

    Timp Temperatura Precipitaţii Vânt Presiune Umiditate
    00:00 +15°C° 0 mm 4 m/s 765 mmHg 81%
    01:00 +15°C° 0 mm 4 m/s 764 mmHg 81%
    02:00 +15°C° 0 mm 4 m/s 764 mmHg 82%
    03:00 +14°C° 0 mm 4 m/s 764 mmHg 82%
    04:00 +14°C° 0 mm 4 m/s 764 mmHg 81%
    05:00 +14°C° 0 mm 4 m/s 764 mmHg 80%
    06:00 +14°C° 0 mm 4 m/s 765 mmHg 79%
    07:00 +17°C° 0 mm 4 m/s 765 mmHg 70%
    08:00 +18°C° 0 mm 4 m/s 765 mmHg 62%
    09:00 +20°C° 0 mm 3 m/s 765 mmHg 51%
    10:00 +22°C° 0 mm 3 m/s 764 mmHg 47%
    11:00 +23°C° 0 mm 4 m/s 764 mmHg 42%
    12:00 +26°C° 0 mm 4 m/s 763 mmHg 38%
    13:00 +26°C° 0 mm 4 m/s 763 mmHg 39%
    14:00 +26°C° 0 mm 5 m/s 762 mmHg 39%
    15:00 +25°C° 0 mm 5 m/s 762 mmHg 42%
    16:00 +22°C° 0 mm 5 m/s 762 mmHg 47%
    17:00 +21°C° 0 mm 5 m/s 762 mmHg 52%
    18:00 +20°C° 0 mm 5 m/s 762 mmHg 56%
    19:00 +19°C° 0 mm 5 m/s 762 mmHg 62%
    20:00 +18°C° 0 mm 4 m/s 762 mmHg 68%
    21:00 +15°C° 0 mm 4 m/s 762 mmHg 74%
    22:00 +15°C° 0 mm 4 m/s 762 mmHg 75%
    23:00 +15°C° 0 mm 4 m/s 762 mmHg 76%

    Mâine, 26 Februarie, Duminică

    Timp Temperatura Precipitaţii Vânt Presiune Umiditate
    00:00 +16°C° 0 mm 3 m/s 762 mmHg 77%
    01:00 +14°C° 0 mm 3 m/s 762 mmHg 76%
    02:00 +14°C° 0 mm 3 m/s 761 mmHg 75%
    03:00 +14°C° 0 mm 3 m/s 761 mmHg 74%
    04:00 +14°C° 0 mm 2 m/s 761 mmHg 73%
    05:00 +14°C° 0 mm 2 m/s 761 mmHg 73%
    06:00 +14°C° 0 mm 2 m/s 761 mmHg 72%
    07:00 +17°C° 0 mm 2 m/s 761 mmHg 60%
    08:00 +20°C° 0 mm 2 m/s 761 mmHg 49%
    09:00 +24°C° 0 mm 1 m/s 761 mmHg 38%
    10:00 +26°C° 0 mm 2 m/s 761 mmHg 33%
    11:00 +27°C° 0 mm 2 m/s 760 mmHg 28%
    12:00 +29°C° 0 mm 2 m/s 760 mmHg 24%
    13:00 +29°C° 0 mm 3 m/s 760 mmHg 24%
    14:00 +30°C° 0 mm 3 m/s 759 mmHg 25%
    15:00 +30°C° 0 mm 3 m/s 759 mmHg 25%
    16:00 +28°C° 0 mm 3 m/s 759 mmHg 30%
    17:00 +27°C° 0 mm 4 m/s 759 mmHg 35%
    18:00 +25°C° 0 mm 4 m/s 759 mmHg 40%
    19:00 +22°C° 0 mm 3 m/s 759 mmHg 47%
    20:00 +21°C° 0 mm 3 m/s 760 mmHg 54%
    21:00 +19°C° 0 mm 3 m/s 760 mmHg 61%
    22:00 +19°C° 0 mm 3 m/s 760 mmHg 64%
    23:00 +18°C° 0 mm 3 m/s 760 mmHg 68%

    Poimâine, 27 Februarie, Luni

    Timp Temperatura Precipitaţii Vânt Presiune Umiditate
    00:00 +18°C° 0 mm 3 m/s 760 mmHg 71%
    01:00 +18°C° 0 mm 2 m/s 759 mmHg 72%
    02:00 +18°C° 0 mm 2 m/s 759 mmHg 73%
    03:00 +17°C° 0 mm 2 m/s 759 mmHg 74%
    04:00 +18°C° 0 mm 2 m/s 759 mmHg 72%
    05:00 +18°C° 0 mm 2 m/s 760 mmHg 71%
    06:00 +18°C° 0 mm 2 m/s 760 mmHg 69%
    07:00 +23°C° 0 mm 1 m/s 760 mmHg 58%
    08:00 +27°C° 0 mm 1 m/s 760 mmHg 46%
    09:00 +30°C° 0 mm 1 m/s 760 mmHg 34%
    10:00 +32°C° 0 mm 1 m/s 760 mmHg 31%
    11:00 +35°C° 0 mm 2 m/s 759 mmHg 27%
    12:00 +37°C° 0 mm 2 m/s 759 mmHg 24%
    13:00 +37°C° 0 mm 3 m/s 759 mmHg 24%
    14:00 +37°C° 0 mm 3 m/s 758 mmHg 24%
    15:00 +37°C° 0 mm 4 m/s 758 mmHg 24%
    16:00 +35°C° 0 mm 4 m/s 758 mmHg 27%
    17:00 +33°C° 0 mm 4 m/s 758 mmHg 31%
    18:00 +30°C° 0 mm 4 m/s 758 mmHg 35%
    19:00 +29°C° 0 mm 4 m/s 758 mmHg 39%
    20:00 +27°C° 0 mm 3 m/s 759 mmHg 44%
    21:00 +26°C° 0 mm 3 m/s 759 mmHg 48%
    22:00 +25°C° 0 mm 3 m/s 759 mmHg 50%
    23:00 +25°C° 0 mm 3 m/s 759 mmHg 52%

    28 Februarie, Marţi

    Timp Temperatura Precipitaţii Vânt Presiune Umiditate
    00:00 +25°C° 0 mm 2 m/s 759 mmHg 53%
    01:00 +25°C° 0 mm 2 m/s 758 mmHg 52%
    02:00 +25°C° 0 mm 2 m/s 758 mmHg 50%
    03:00 +25°C° 0 mm 2 m/s 758 mmHg 49%
    04:00 +25°C° 0 mm 2 m/s 758 mmHg 49%
    05:00 +25°C° 0 mm 2 m/s 759 mmHg 49%
    06:00 +25°C° 0 mm 2 m/s 759 mmHg 48%
    07:00 +28°C° 0 mm 2 m/s 759 mmHg 41%
    08:00 +31°C° 0 mm 2 m/s 759 mmHg 34%
    09:00 +35°C° 0 mm 2 m/s 760 mmHg 26%
    10:00 +37°C° 0 mm 2 m/s 759 mmHg 24%
    11:00 +38°C° 0 mm 2 m/s 759 mmHg 21%
    12:00 +39°C° 0 mm 1 m/s 758 mmHg 19%
    13:00 +38°C° 0 mm 2 m/s 758 mmHg 20%
    14:00 +37°C° 0 mm 2 m/s 757 mmHg 21%
    15:00 +36°C° 0 mm 3 m/s 757 mmHg 23%
    16:00 +36°C° 0 mm 3 m/s 757 mmHg 24%
    17:00 +35°C° 0 mm 3 m/s 757 mmHg 26%
    18:00 +34°C° 0 mm 3 m/s 758 mmHg 27%
    19:00 +31°C° 0 mm 3 m/s 758 mmHg 30%
    20:00 +30°C° 0 mm 3 m/s 759 mmHg 32%
    21:00 +28°C° 0 mm 3 m/s 759 mmHg 35%
    22:00 +28°C° 0 mm 3 m/s 759 mmHg 36%
    23:00 +27°C° 0 mm 3 m/s 759 mmHg 38%

    1 Martie, Miercuri

    Timp Temperatura Precipitaţii Vânt Presiune Umiditate
    00:00 +27°C° 0 mm 3 m/s 759 mmHg 40%
    01:00 +26°C° 0 mm 3 m/s 759 mmHg 41%
    02:00 +25°C° 0 mm 2 m/s 758 mmHg 42%
    03:00 +25°C° 0 mm 2 m/s 758 mmHg 43%
    04:00 +25°C° 0 mm 2 m/s 758 mmHg 43%
    05:00 +25°C° 0 mm 2 m/s 759 mmHg 43%
    06:00 +25°C° 0 mm 2 m/s 759 mmHg 42%
    07:00 +28°C° 0 mm 2 m/s 759 mmHg 36%
    08:00 +31°C° 0 mm 2 m/s 759 mmHg 30%
    09:00 +35°C° 0 mm 2 m/s 759 mmHg 24%
    10:00 +37°C° 0 mm 2 m/s 759 mmHg 22%
    11:00 +38°C° 0 mm 2 m/s 759 mmHg 19%
    12:00 +40°C° 0 mm 2 m/s 758 mmHg 17%
    13:00 +39°C° 0 mm 3 m/s 758 mmHg 17%
    14:00 +38°C° 0 mm 3 m/s 758 mmHg 18%
    15:00 +37°C° 0 mm 4 m/s 757 mmHg 19%
    16:00 +36°C° 0 mm 4 m/s 757 mmHg 21%
    17:00 +35°C° 0 mm 4 m/s 758 mmHg 24%
    18:00 +33°C° 0 mm 4 m/s 758 mmHg 27%
    19:00 +30°C° 0 mm 3 m/s 758 mmHg 31%
    20:00 +29°C° 0 mm 3 m/s 759 mmHg 35%
    21:00 +27°C° 0 mm 3 m/s 759 mmHg 40%
    22:00 +27°C° 0 mm 3 m/s 759 mmHg 41%
    23:00 +26°C° 0 mm 2 m/s 759 mmHg 43%

    2 Martie, Joi

    Timp Temperatura Precipitaţii Vânt Presiune Umiditate
    00:00 +25°C° 0 mm 2 m/s 759 mmHg 45%
    01:00 +25°C° 0 mm 2 m/s 758 mmHg 46%
    02:00 +24°C° 0 mm 2 m/s 758 mmHg 47%
    03:00 +24°C° 0 mm 2 m/s 758 mmHg 48%
    04:00 +24°C° 0 mm 1 m/s 758 mmHg 49%
    05:00 +23°C° 0 mm 1 m/s 759 mmHg 50%
    06:00 +23°C° 0 mm 1 m/s 759 mmHg 50%
    07:00 +27°C° 0 mm 1 m/s 759 mmHg 42%
    08:00 +31°C° 0 mm 1 m/s 759 mmHg 33%
    09:00 +35°C° 0 mm 1 m/s 759 mmHg 24%
    10:00 +36°C° 0 mm 1 m/s 759 mmHg 22%
    11:00 +38°C° 0 mm 2 m/s 758 mmHg 20%
    12:00 +39°C° 0 mm 2 m/s 758 mmHg 19%
    13:00 +38°C° 0 mm 3 m/s 758 mmHg 20%
    14:00 +37°C° 0 mm 4 m/s 757 mmHg 21%
    15:00 +37°C° 0 mm 4 m/s 757 mmHg 22%
    16:00 +35°C° 0 mm 4 m/s 757 mmHg 26%
    17:00 +33°C° 0 mm 4 m/s 757 mmHg 30%
    18:00 +30°C° 0 mm 4 m/s 757 mmHg 34%
    19:00 +29°C° 0 mm 4 m/s 758 mmHg 38%
    20:00 +27°C° 0 mm 4 m/s 758 mmHg 42%
    21:00 +26°C° 0 mm 3 m/s 758 mmHg 45%
    22:00 +25°C° 0 mm 3 m/s 758 mmHg 47%
    23:00 +24°C° 0 mm 3 m/s 758 mmHg 49%
    Arată mai mult